Location: Warszawa
(52.2500°N, 21.0000°E)
Time: 14:05:49
(UTC+02:00)

Vanguard 2 - Pass Details

Date: 14 February 2023
Orbit: 553 x 2927 km, 32.9° (Epoch: 27 March)

Event Time Altitude Azimuth Distance (km) Brightness Sun altitude
Rises 22:49:30 0° 259° (WSW) 5,110 11.8 -48.8°
Enters shadow 22:53:06 - 247° (WSW) 4,516 11.4 -49.0°
Reaches altitude 10° 22:53:25 10° 246° (WSW) 4,473 - -49.0°
Maximum altitude 23:02:50 24° 200° (SSW) 4,109 - -49.5°
Drops below altitude 10° 23:14:36 10° 155° (SSE) 5,666 - -50.0°
Sets 23:20:32 0° 144° (SE) 6,770 - -50.2°
